TimeAKDT,TemperatureF,Dew PointF,Humidity,Sea Level PressureIn,VisibilityMPH,Wind Direction,Wind SpeedMPH,Gust SpeedMPH,PrecipitationIn,Events,Conditions,WindDirDegrees,DateUTC
12:16 AM,50.0,42.8,76,29.76,10.0,Calm,Calm,-,0.01,,Overcast,0,2013-06-07 08:16:00
12:36 AM,48.2,44.6,87,29.76,10.0,SW,5.8,-,0.02,,Overcast,230,2013-06-07 08:36:00
12:56 AM,48.2,44.6,87,29.76,10.0,SW,4.6,-,0.02,,Overcast,220,2013-06-07 08:56:00
1:16 AM,46.4,42.8,87,29.76,10.0,ENE,3.5,-,0.01,,Overcast,60,2013-06-07 09:16:00
1:36 AM,46.4,42.8,87,29.76,10.0,SW,3.5,-,0.01,,Overcast,230,2013-06-07 09:36:00
1:56 AM,48.2,42.8,82,29.76,10.0,SSW,5.8,-,0.01,,Overcast,210,2013-06-07 09:56:00
2:16 AM,48.2,44.6,87,29.76,10.0,SW,3.5,-,N/A,,Overcast,230,2013-06-07 10:16:00
2:36 AM,48.2,44.6,87,29.76,10.0,SW,4.6,-,N/A,,Overcast,220,2013-06-07 10:36:00
2:56 AM,48.2,44.6,87,29.77,10.0,West,3.5,-,N/A,,Overcast,270,2013-06-07 10:56:00
3:16 AM,48.2,44.6,87,29.77,10.0,Calm,Calm,-,N/A,,Overcast,0,2013-06-07 11:16:00
3:36 AM,48.2,44.6,87,29.77,10.0,Calm,Calm,-,N/A,,Overcast,0,2013-06-07 11:36:00
3:56 AM,48.2,44.6,87,29.78,9.0,Calm,Calm,-,N/A,,Overcast,0,2013-06-07 11:56:00
4:16 AM,48.2,44.6,87,29.78,5.0,WSW,3.5,-,N/A,,Mostly Cloudy,250,2013-06-07 12:16:00
4:36 AM,48.2,44.6,87,29.79,2.5,WSW,3.5,-,N/A,,Overcast,250,2013-06-07 12:36:00
4:56 AM,48.2,44.6,87,29.79,3.0,Calm,Calm,-,N/A,,Overcast,0,2013-06-07 12:56:00
5:16 AM,48.2,44.6,87,29.80,8.0,Calm,Calm,-,N/A,,Mostly Cloudy,0,2013-06-07 13:16:00
6:04 AM,46.4,42.8,87,29.82,10.0,Calm,Calm,-,N/A,Fog-Rain,Light Rain Showers,0,2013-06-07 14:04:00
6:49 AM,46.4,42.8,87,29.82,10.0,Calm,Calm,-,N/A,Fog,Patches of Fog,0,2013-06-07 14:49:00
7:16 AM,-9999,-9999,N/A,-9999,10.0,North,-9999.0,-,N/A,,Mostly Cloudy,0,2013-06-07 15:16:00
7:36 AM,50.0,46.4,87,29.83,10.0,Calm,Calm,-,N/A,,Mostly Cloudy,0,2013-06-07 15:36:00
7:56 AM,51.8,46.4,82,29.84,10.0,Calm,Calm,-,N/A,,Mostly Cloudy,0,2013-06-07 15:56:00
8:16 AM,51.8,46.4,82,29.84,10.0,NNW,3.5,-,N/A,,Mostly Cloudy,330,2013-06-07 16:16:00
8:36 AM,51.8,44.6,76,29.84,10.0,ENE,8.1,-,N/A,,Mostly Cloudy,60,2013-06-07 16:36:00
8:56 AM,53.6,44.6,72,29.85,10.0,Calm,Calm,-,N/A,,Mostly Cloudy,0,2013-06-07 16:56:00
9:16 AM,53.6,44.6,72,29.85,10.0,Calm,Calm,-,N/A,,Mostly Cloudy,0,2013-06-07 17:16:00
9:36 AM,53.6,44.6,72,29.85,10.0,NNE,4.6,-,N/A,,Mostly Cloudy,20,2013-06-07 17:36:00
9:56 AM,53.6,44.6,72,29.86,10.0,East,8.1,-,N/A,,Overcast,80,2013-06-07 17:56:00
10:16 AM,53.6,42.8,67,29.86,10.0,SE,4.6,-,N/A,,Overcast,140,2013-06-07 18:16:00
10:36 AM,53.6,44.6,72,29.86,10.0,NNW,5.8,-,N/A,,Overcast,340,2013-06-07 18:36:00
10:56 AM,53.6,44.6,72,29.87,10.0,ESE,5.8,-,N/A,,Overcast,110,2013-06-07 18:56:00
11:16 AM,55.4,44.6,67,29.88,10.0,East,6.9,-,N/A,,Overcast,100,2013-06-07 19:16:00
11:36 AM,55.4,44.6,67,29.88,10.0,East,5.8,-,N/A,,Overcast,90,2013-06-07 19:36:00
11:56 AM,55.4,44.6,67,29.89,10.0,ENE,9.2,-,N/A,,Mostly Cloudy,60,2013-06-07 19:56:00
12:16 PM,53.6,44.6,72,29.89,10.0,ENE,9.2,-,N/A,,Mostly Cloudy,70,2013-06-07 20:16:00
12:36 PM,55.4,44.6,67,29.90,10.0,East,8.1,-,N/A,,Mostly Cloudy,90,2013-06-07 20:36:00
12:56 PM,55.4,44.6,67,29.90,10.0,East,8.1,-,N/A,,Mostly Cloudy,80,2013-06-07 20:56:00
1:16 PM,57.2,44.6,63,29.90,10.0,NE,4.6,-,N/A,,Mostly Cloudy,50,2013-06-07 21:16:00
1:36 PM,57.2,44.6,63,29.90,10.0,East,9.2,-,N/A,,Mostly Cloudy,100,2013-06-07 21:36:00
1:56 PM,57.2,42.8,59,29.91,10.0,SSE,6.9,-,N/A,,Mostly Cloudy,160,2013-06-07 21:56:00
2:16 PM,59.0,42.8,55,29.91,10.0,SW,5.8,-,N/A,,Mostly Cloudy,220,2013-06-07 22:16:00
2:36 PM,59.0,44.6,59,29.91,10.0,SE,8.1,16.1,N/A,,Mostly Cloudy,130,2013-06-07 22:36:00
2:56 PM,59.0,42.8,55,29.91,10.0,ESE,10.4,17.3,N/A,,Mostly Cloudy,110,2013-06-07 22:56:00
3:16 PM,59.0,44.6,59,29.91,10.0,East,10.4,19.6,N/A,,Mostly Cloudy,90,2013-06-07 23:16:00
3:36 PM,57.2,42.8,59,29.91,10.0,East,3.5,-,N/A,,Mostly Cloudy,100,2013-06-07 23:36:00
3:56 PM,59.0,44.6,59,29.91,10.0,East,6.9,-,N/A,,Mostly Cloudy,90,2013-06-07 23:56:00
4:16 PM,59.0,42.8,55,29.91,10.0,ENE,10.4,-,N/A,,Mostly Cloudy,60,2013-06-08 00:16:00
4:56 PM,57.2,42.8,59,29.92,10.0,East,6.9,-,N/A,,Mostly Cloudy,100,2013-06-08 00:56:00
5:16 PM,55.4,42.8,63,29.92,10.0,East,3.5,-,N/A,,Mostly Cloudy,100,2013-06-08 01:16:00
5:36 PM,55.4,44.6,67,29.92,10.0,East,6.9,-,N/A,,Mostly Cloudy,90,2013-06-08 01:36:00
5:56 PM,55.4,42.8,63,29.92,10.0,ENE,9.2,-,N/A,,Mostly Cloudy,70,2013-06-08 01:56:00
6:16 PM,55.4,42.8,63,29.92,10.0,ENE,8.1,-,N/A,,Mostly Cloudy,70,2013-06-08 02:16:00
6:36 PM,55.4,44.6,67,29.92,10.0,ENE,5.8,-,N/A,,Mostly Cloudy,70,2013-06-08 02:36:00
6:56 PM,55.4,44.6,67,29.92,10.0,ENE,3.5,-,N/A,,Mostly Cloudy,60,2013-06-08 02:56:00
7:16 PM,55.4,44.6,67,29.93,10.0,East,8.1,-,N/A,,Mostly Cloudy,90,2013-06-08 03:16:00
7:36 PM,55.4,44.6,67,29.93,10.0,East,4.6,-,N/A,,Mostly Cloudy,100,2013-06-08 03:36:00
7:56 PM,55.4,42.8,63,29.93,10.0,North,4.6,-,N/A,,Mostly Cloudy,350,2013-06-08 03:56:00
8:16 PM,53.6,44.6,72,29.93,10.0,ENE,3.5,-,N/A,,Mostly Cloudy,60,2013-06-08 04:16:00
8:36 PM,53.6,42.8,67,29.93,10.0,Calm,Calm,-,N/A,,Mostly Cloudy,0,2013-06-08 04:36:00
8:56 PM,53.6,42.8,67,29.93,10.0,SE,5.8,-,N/A,,Overcast,130,2013-06-08 04:56:00
9:16 PM,53.6,42.8,67,29.94,10.0,Calm,Calm,-,N/A,,Overcast,0,2013-06-08 05:16:00
9:36 PM,53.6,42.8,67,29.94,10.0,ESE,6.9,-,N/A,,Overcast,120,2013-06-08 05:36:00
9:56 PM,53.6,42.8,67,29.94,10.0,South,3.5,-,N/A,,Overcast,170,2013-06-08 05:56:00
10:16 PM,53.6,42.8,67,29.94,10.0,Calm,Calm,-,N/A,,Overcast,0,2013-06-08 06:16:00
10:36 PM,53.6,42.8,67,29.94,10.0,North,3.5,-,N/A,,Overcast,360,2013-06-08 06:36:00
10:56 PM,51.8,42.8,71,29.95,10.0,Calm,Calm,-,N/A,,Overcast,0,2013-06-08 06:56:00
11:16 PM,51.8,44.6,76,29.95,10.0,North,3.5,-,N/A,,Overcast,10,2013-06-08 07:16:00
11:56 PM,48.2,44.6,87,29.95,10.0,Calm,Calm,-,N/A,,Unknown,0,2013-06-08 07:56:00